Weather reports worldwide

Advertisment
Charlwood, United Kingdom (3769): temperature & dewpoint: 29.03.2020 00:00:00 - 04.04.2020 00:00:00 (BST)Charlwood, United Kingdom (3769): temperature -20cm & temperature -100cm: 29.03.2020 00:00:00 - 04.04.2020 00:00:00 (BST)Charlwood, United Kingdom (3769): wind speed & gusts: 29.03.2020 00:00:00 - 04.04.2020 00:00:00 (BST)Charlwood, United Kingdom (3769): wind direction: 29.03.2020 00:00:00 - 04.04.2020 00:00:00 (BST)Charlwood, United Kingdom (3769): reduced air pressure: 29.03.2020 00:00:00 - 04.04.2020 00:00:00 (BST)Charlwood, United Kingdom (3769): visibility: 29.03.2020 00:00:00 - 04.04.2020 00:00:00 (BST)Charlwood, United Kingdom (3769): sunshine duration: 29.03.2020 00:00:00 - 04.04.2020 00:00:00 (BST)Charlwood, United Kingdom (3769): precipitation: 29.03.2020 00:00:00 - 04.04.2020 00:00:00 (BST)
Date & Time tt [°C] td [°C] tt -20cm [°C] tt -100cm [°C] ff [km/h] ff [kn] fx [km/h] fx [kn] dd ppp [hPa] vv [km] sd [min] rr [mm]
04.04.2020 00:00:00 2,6 1,4 - - 5 3 - - SW 1019,9 18 0 0,0
03.04.2020 23:00:00 3,3 1,5 - - 5 3 - - WSW 1019,5 30 0 0,0
03.04.2020 22:00:00 4,9 2,2 - - 4 2 - - W 1019,5 45 0 0,0
03.04.2020 21:00:00 6,7 2,6 - - 4 2 - - SW 1019,3 45 0 0,0
03.04.2020 20:00:00 8,2 1,4 - - 2 1 - - WNW 1018,8 40 6 0,0
03.04.2020 19:00:00 12,3 0,4 - - 4 2 - - NNW 1018,3 45 18 0,0
03.04.2020 18:00:00 13,0 1,5 - - 5 3 - - WSW 1018,1 35 36 0,0
03.04.2020 17:00:00 13,4 1,9 - - 11 6 - - W 1017,8 45 42 0,0
03.04.2020 16:00:00 11,9 1,3 - - 9 5 - - W 1018,0 45 24 0,0
03.04.2020 15:00:00 12,8 2,1 - - 11 6 - - WNW 1018,1 30 54 0,0
03.04.2020 14:00:00 12,1 2,2 - - 11 6 - - W 1018,2 40 18 0,0
03.04.2020 13:00:00 10,7 1,9 - - 4 2 - - WNW 1018,3 21 0 0,0
03.04.2020 12:00:00 9,8 2,5 - - 5 3 - - WNW 1018,3 35 0 0,0
03.04.2020 11:00:00 9,9 3,4 - - 5 3 - - WNW 1017,9 35 0 0,0
03.04.2020 10:00:00 9,6 4,1 8,5 8,0 11 6 - - W 1017,7 25 6 0,0
03.04.2020 09:00:00 8,5 5,7 - - 5 3 - - W 1017,3 12 0 0,0
03.04.2020 08:00:00 6,9 5,6 - - 4 2 - - W 1017,1 14 0 0,0
03.04.2020 07:00:00 6,0 4,4 - - 2 1 - - WNW 1016,7 14 0 0,0
03.04.2020 06:00:00 6,0 4,3 - - 2 1 - - W 1016,2 20 0 0,0
03.04.2020 05:00:00 6,6 4,4 - - 4 2 - - W 1016,0 18 0 0,0
03.04.2020 04:00:00 6,8 4,6 - - 8 4 - - W 1015,7 17 0 0,0
03.04.2020 03:00:00 5,8 3,8 - - 2 1 - - WSW 1015,4 15 0 0,0
03.04.2020 02:00:00 6,6 4,7 - - 5 3 - - W 1015,6 15 0 0,0
03.04.2020 01:00:00 5,8 4,8 - - 8 4 - - W 1015,5 12 - 0,0
03.04.2020 00:00:00 5,5 3,5 - - 8 4 - - WSW 1015,3 16 0 0,0
02.04.2020 23:00:00 7,1 4,3 - - 9 5 - - WSW 1015,2 27 0 0,0
02.04.2020 22:00:00 6,7 3,7 - - 8 4 - - WSW 1015,1 30 0 0,0
02.04.2020 21:00:00 9,1 4,3 - - 8 4 - - W 1014,7 45 0 0,0
02.04.2020 20:00:00 10,2 5,0 - - 9 5 - - W 1014,1 40 6 0,0
02.04.2020 19:00:00 11,3 5,0 - - 11 6 - - W 1013,8 40 0 0,0
02.04.2020 18:00:00 11,9 4,8 - - 11 6 - - W 1013,6 45 0 0,0
02.04.2020 17:00:00 12,0 4,3 - - 11 6 - - W 1013,7 50 6 0,0
02.04.2020 16:00:00 12,6 4,1 - - 13 7 - - WNW 1014,0 45 0 0,0
02.04.2020 15:00:00 12,0 2,3 - - 13 7 - - W 1014,5 50 0 0,0
02.04.2020 14:00:00 12,1 3,1 - - 9 5 - - WNW 1015,0 40 6 0,0
02.04.2020 13:00:00 12,1 4,9 - - 8 4 - - NW 1015,5 35 12 0,0
02.04.2020 12:00:00 10,2 3,6 - - 8 4 - - W 1015,9 45 24 0,0
02.04.2020 11:00:00 9,8 5,0 - - 9 5 - - WSW 1016,4 14 30 0,0
02.04.2020 10:00:00 7,6 4,4 8,2 8,0 8 4 - - WSW 1016,8 40 0 0,0
02.04.2020 09:00:00 6,3 2,8 - - 8 4 - - W 1017,1 30 0 0,0
02.04.2020 08:00:00 5,8 2,0 - - 5 3 - - WSW 1017,4 45 0 0,0
02.04.2020 07:00:00 5,4 0,7 - - 5 3 - - W 1017,3 50 0 0,0
02.04.2020 06:00:00 5,3 0,7 - - 5 3 - - W 1017,4 40 0 0,0
02.04.2020 05:00:00 5,0 1,2 - - 4 2 - - WSW 1017,8 40 0 0,0
02.04.2020 04:00:00 5,2 0,7 - - 4 2 - - WNW 1018,1 40 0 0,0
02.04.2020 03:00:00 5,3 0,7 - - 4 2 - - WNW 1018,6 40 0 0,0
02.04.2020 02:00:00 5,5 0,1 - - 4 2 - - WNW 1018,9 45 0 0,0
02.04.2020 01:00:00 5,5 -0,6 - - 4 2 - - WNW 1019,3 45 - 0,0
02.04.2020 00:00:00 5,6 -0,5 - - 4 2 - - WNW 1019,6 50 0 0,0
01.04.2020 23:00:00 6,2 -0,3 - - 5 3 - - WNW 1019,9 45 0 0,0
01.04.2020 22:00:00 6,5 0,1 - - 5 3 - - WNW 1020,2 50 0 0,0
01.04.2020 21:00:00 6,9 -0,3 - - 4 2 - - NW 1020,3 40 0 0,0
01.04.2020 20:00:00 6,9 -0,6 - - 4 2 - - NW 1020,2 50 0 0,0
01.04.2020 19:00:00 7,6 -1,7 - - 4 2 - - NW 1020,4 50 0 0,0
01.04.2020 18:00:00 8,2 -1,8 - - 4 2 - - N 1020,6 29 0 0,0
01.04.2020 17:00:00 8,6 -1,5 - - 8 4 - - N 1021,0 50 0 0,0
01.04.2020 16:00:00 8,8 -1,2 - - 8 4 - - N 1021,6 40 0 0,0
01.04.2020 15:00:00 9,2 -1,2 - - 9 5 - - N 1021,9 30 0 0,0
01.04.2020 14:00:00 9,9 -1,6 - - 15 8 - - NNE 1022,4 35 36 0,0
01.04.2020 13:00:00 10,3 -1,4 - - 8 4 - - NE 1022,8 28 42 0,0
01.04.2020 12:00:00 9,2 -0,3 - - 15 8 - - NE 1023,6 45 60 0,0
01.04.2020 11:00:00 7,8 -0,1 - - 8 4 - - NE 1024,5 40 60 0,0
01.04.2020 10:00:00 6,4 0,6 7,9 8,0 8 4 - - NE 1025,2 35 54 0,0
01.04.2020 09:00:00 3,9 1,1 - - 5 3 - - NE 1025,5 30 60 0,0
01.04.2020 08:00:00 -0,9 -1,4 - - 2 1 - - N 1025,9 6 48 0,0
01.04.2020 07:00:00 -3,2 -4,0 - - 2 1 - - NW 1026,0 7 0 0,0
01.04.2020 06:00:00 -2,9 -3,7 - - 2 1 - - W 1026,1 6 0 0,0
01.04.2020 05:00:00 -2,4 -3,3 - - 4 2 - - NNW 1026,4 7 0 0,0
01.04.2020 04:00:00 -1,7 -2,8 - - 4 2 - - NNW 1026,8 9 0 0,0
01.04.2020 03:00:00 -0,6 -2,7 - - 0 0 - - N 1027,5 11 0 0,0
01.04.2020 02:00:00 1,2 -1,5 - - 9 5 - - N 1027,9 22 0 0,0
01.04.2020 01:00:00 1,6 -1,5 - - 8 4 - - N 1028,4 26 - 0,0
01.04.2020 00:00:00 0,8 -1,9 - - 5 3 - - N 1029,0 27 0 0,0
31.03.2020 23:00:00 1,6 -1,8 - - 8 4 - - NNE 1029,1 26 0 0,0
31.03.2020 22:00:00 2,8 -2,6 - - 8 4 - - NE 1029,3 45 0 0,0
31.03.2020 21:00:00 4,3 -2,7 - - 11 6 - - NE 1029,5 45 0 0,0
31.03.2020 20:00:00 5,3 -1,8 - - 13 7 - - ENE 1029,5 50 6 0,0
31.03.2020 19:00:00 7,1 -0,6 - - 18 10 - - ENE 1029,4 35 48 0,0
31.03.2020 18:00:00 8,1 0,4 - - 16 9 - - ENE 1029,7 20 24 0,0
31.03.2020 17:00:00 8,5 0,4 - - 18 10 - - NE 1029,7 27 12 -
31.03.2020 16:00:00 10,4 -1,1 - - 21 11 - - ENE 1029,7 30 48 0,0
31.03.2020 15:00:00 9,4 -2,1 - - 24 13 - - NE 1030,3 50 48 0,0
31.03.2020 14:00:00 9,9 -1,6 - - 21 11 - - ENE 1030,9 45 30 0,0
31.03.2020 13:00:00 9,5 -0,4 - - 24 13 - - ENE 1031,2 35 24 0,0
31.03.2020 12:00:00 9,6 2,0 - - 22 12 - - ENE 1031,4 30 24 0,0
31.03.2020 11:00:00 7,5 1,7 - - 22 12 - - ENE 1031,7 24 18 0,0
31.03.2020 10:00:00 6,7 2,7 7,9 8,0 22 12 - - NE 1032,1 18 18 0,0
31.03.2020 09:00:00 4,3 1,7 - - 15 8 - - NNE 1032,0 20 0 0,0
31.03.2020 08:00:00 3,5 1,1 - - 11 6 - - NNE 1031,8 18 0 0,0
31.03.2020 07:00:00 2,8 0,3 - - 13 7 - - NNE 1031,3 19 0 0,0
31.03.2020 06:00:00 3,2 0,6 - - 15 8 - - NNE 1030,9 17 0 0,0
31.03.2020 05:00:00 3,3 0,6 - - 13 7 - - NNE 1031,0 18 0 0,0
31.03.2020 04:00:00 3,4 0,8 - - 11 6 - - NNE 1031,1 17 0 0,0
31.03.2020 03:00:00 4,3 1,5 - - 13 7 - - NNE 1031,1 20 0 0,0
31.03.2020 02:00:00 4,1 1,4 - - 11 6 - - NNE 1031,2 20 0 0,0
31.03.2020 01:00:00 4,7 1,8 - - 13 7 - - NNE 1031,3 18 - 0,0
31.03.2020 00:00:00 5,3 1,4 - - 15 8 - - NNE 1031,1 30 0 0,0
30.03.2020 23:00:00 6,1 2,8 - - 15 8 - - NNE 1031,2 22 0 0,0
30.03.2020 22:00:00 6,6 1,9 - - 15 8 - - NNE 1031,2 23 0 0,0
30.03.2020 21:00:00 6,8 2,3 - - 16 9 - - NNE 1031,1 20 0 0,0
30.03.2020 20:00:00 6,8 2,3 - - 9 5 - - NNE 1030,7 21 0 0,0
30.03.2020 19:00:00 7,1 2,4 - - 11 6 - - NNE 1030,7 40 0 0,0
30.03.2020 18:00:00 7,7 2,9 - - 9 5 - - NE 1030,6 29 12 0,0
30.03.2020 17:00:00 7,3 3,5 - - 9 5 - - NE 1031,1 30 0 0,0
30.03.2020 16:00:00 6,8 2,7 - - 13 7 - - NE 1031,7 18 6 0,0
30.03.2020 15:00:00 8,1 2,0 - - 15 8 - - NE 1031,9 35 0 0,0
30.03.2020 14:00:00 7,9 2,7 - - 13 7 - - NNE 1032,6 30 6 0,0
30.03.2020 13:00:00 7,4 2,6 - - 15 8 - - NNE 1033,3 30 6 0,0
30.03.2020 12:00:00 5,7 0,8 - - 5 3 - - NE 1033,9 30 0 0,2
30.03.2020 11:00:00 5,3 -1,2 - - 11 6 - - N 1034,7 30 0 0,0
30.03.2020 10:00:00 4,7 -1,8 7,9 8,0 9 5 - - N 1035,1 30 0 0,0
30.03.2020 09:00:00 3,9 -0,5 - - 8 4 - - N 1035,4 24 6 0,0
30.03.2020 08:00:00 2,5 -0,7 - - 5 3 - - N 1035,9 27 0 0,0
30.03.2020 07:00:00 1,4 -1,2 - - 5 3 - - N 1036,1 27 0 0,0
30.03.2020 06:00:00 1,9 -1,7 - - 9 5 - - N 1036,1 30 0 0,0
30.03.2020 05:00:00 2,8 -1,3 - - 11 6 - - N 1036,3 35 0 0,0
30.03.2020 04:00:00 2,7 -1,7 - - 11 6 - - N 1036,8 30 0 0,0
30.03.2020 03:00:00 2,5 -3,4 - - 13 7 - - N 1037,5 35 0 0,0
30.03.2020 02:00:00 1,9 -4,4 - - 11 6 - - NNE 1037,9 30 0 0,0
30.03.2020 01:00:00 1,5 -4,8 - - 13 7 - - NNE 1038,4 30 - 0,0
30.03.2020 00:00:00 1,9 -4,8 - - 13 7 - - NNE 1038,7 30 0 0,0
29.03.2020 23:00:00 2,1 -5,0 - - 15 8 - - NNE 1039,1 24 0 0,0
29.03.2020 22:00:00 3,1 -5,1 - - 26 14 48 26 NE 1038,8 35 0 0,0
29.03.2020 21:00:00 3,5 -5,5 - - 28 15 50 27 NE 1038,6 35 0 0,0
29.03.2020 20:00:00 4,1 -5,8 - - 31 17 52 28 NNE 1038,0 35 0 0,0
29.03.2020 19:00:00 5,2 -6,1 - - 29 16 54 29 NNE 1037,4 45 36 0,0
29.03.2020 18:00:00 5,6 -4,4 - - 31 17 59 32 NE 1036,9 35 18 0,0
29.03.2020 17:00:00 5,6 -2,0 - - 34 18 52 28 NNE 1037,0 23 36 0,0
29.03.2020 16:00:00 4,3 0,5 - - 26 14 61 33 NE 1037,2 30 24 0,6
29.03.2020 15:00:00 6,0 1,3 - - 28 15 57 31 NNE 1037,2 40 42 0,2
29.03.2020 14:00:00 5,7 0,3 - - 28 15 52 28 NNE 1036,9 30 30 0,2
29.03.2020 13:00:00 5,2 -1,5 - - 34 18 63 34 NNE 1037,0 5 24 0,0
29.03.2020 12:00:00 7,5 -3,1 - - 34 18 63 34 NNE 1036,4 18 42 0,0
29.03.2020 11:00:00 6,1 -3,7 - - 37 20 63 34 NNE 1036,2 29 48 0,0
29.03.2020 10:00:00 5,8 -4,3 8,2 8,2 35 19 61 33 NNE 1036,0 22 54 0,0
29.03.2020 09:00:00 4,8 -3,2 - - 29 16 55 30 NNE 1035,6 21 30 0,0
29.03.2020 08:00:00 3,6 -3,0 - - 26 14 48 26 NNE 1035,4 20 0 0,0
29.03.2020 07:00:00 3,7 -3,2 - - 29 16 46 25 NNE 1034,8 25 0 0,0
29.03.2020 06:00:00 3,8 -3,0 - - 28 15 48 26 NNE 1034,5 21 0 0,0
29.03.2020 05:00:00 3,7 -2,5 - - 21 11 - - NNE 1034,4 17 0 0,0
29.03.2020 04:00:00 3,4 -2,0 - - 22 12 46 25 NNE 1034,2 20 0 0,0
29.03.2020 03:00:00 3,5 -1,0 - - 22 12 - - NNE 1034,3 22 0 0,0
29.03.2020 02:00:00 4,1 -0,5 - - 24 13 - - NNE 1034,0 23 0 0,0
29.03.2020 01:00:00 4,4 -0,1 - - 22 12 - - NNE 1033,6 26 - 0,0
29.03.2020 00:00:00 - - - - - - - - - - - - -

tt = temperature
td = dewpoint
tt -20cm = temperature -20cm
tt -100cm = temperature -100cm
ff = wind speed
fx = gusts
dd = wind direction
ppp = reduced air pressure
vv = visibility
sd = sunshine duration
rr = precipitation

Next stations